Time,TemperatureF,DewpointF,PressureIn,WindDirection,WindDirectionDegrees,WindSpeedMPH,WindSpeedGustMPH,Humidity,HourlyPrecipIn,Conditions,Clouds,dailyrainin,SoftwareType,DateUTC
2017-05-27 00:00:00,61.8,56.9,29.82,NNW,333,0.0,0.0,84,0.00,,,0.00,Wunderground v.1.15,2017-05-27 04:00:00,
2017-05-27 00:10:00,61.7,56.5,29.82,NNW,333,0.0,0.0,83,0.00,,,0.00,Wunderground v.1.15,2017-05-27 04:10:00,
2017-05-27 00:20:00,61.6,56.7,29.82,WSW,257,0.0,9.0,84,0.00,,,0.00,Wunderground v.1.15,2017-05-27 04:20:00,
2017-05-27 00:30:00,61.3,56.8,29.83,SSW,198,2.0,2.0,85,0.00,,,0.00,Wunderground v.1.15,2017-05-27 04:30:00,
2017-05-27 00:40:00,61.3,56.8,29.83,SSW,198,0.0,0.0,85,0.00,,,0.00,Wunderground v.1.15,2017-05-27 04:40:00,
2017-05-27 00:50:00,61.1,56.6,29.83,SSW,198,0.0,0.0,85,0.00,,,0.00,Wunderground v.1.15,2017-05-27 04:50:00,
2017-05-27 01:00:00,60.8,56.3,29.83,SSW,200,0.0,0.0,85,0.00,,,0.00,Wunderground v.1.15,2017-05-27 05:00:00,
2017-05-27 01:10:00,60.5,56.6,29.83,SSW,200,0.0,0.0,87,0.00,,,0.00,Wunderground v.1.15,2017-05-27 05:10:00,
2017-05-27 01:20:00,60.6,56.7,29.83,SSW,200,0.0,0.0,87,0.00,,,0.00,Wunderground v.1.15,2017-05-27 05:20:00,
2017-05-27 01:30:00,60.9,56.7,29.83,SSW,200,0.0,0.0,86,0.00,,,0.00,Wunderground v.1.15,2017-05-27 05:30:00,
2017-05-27 01:40:00,60.8,56.6,29.83,SSW,200,0.0,0.0,86,0.00,,,0.00,Wunderground v.1.15,2017-05-27 05:40:00,
2017-05-27 01:50:00,60.4,56.5,29.83,WSW,255,0.0,0.0,87,0.00,,,0.00,Wunderground v.1.15,2017-05-27 05:50:00,
2017-05-27 02:00:00,60.2,56.3,29.83,WSW,255,0.0,0.0,87,0.00,,,0.00,Wunderground v.1.15,2017-05-27 06:00:00,
2017-05-27 02:10:00,60.0,56.4,29.83,NW,309,1.0,1.0,88,0.00,,,0.00,Wunderground v.1.15,2017-05-27 06:10:00,
2017-05-27 02:20:00,59.9,56.3,29.83,NW,309,1.0,1.0,88,0.00,,,0.00,Wunderground v.1.15,2017-05-27 06:20:00,
2017-05-27 02:30:00,59.8,56.2,29.83,NW,309,0.0,0.0,88,0.00,,,0.00,Wunderground v.1.15,2017-05-27 06:30:00,
2017-05-27 02:40:00,59.8,56.2,29.83,NW,311,1.0,1.0,88,0.00,,,0.00,Wunderground v.1.15,2017-05-27 06:40:00,
2017-05-27 02:50:00,59.8,56.6,29.83,NW,311,0.0,0.0,89,0.00,,,0.00,Wunderground v.1.15,2017-05-27 06:50:00,
2017-05-27 03:00:00,59.6,56.7,29.82,NW,311,0.0,0.0,90,0.00,,,0.00,Wunderground v.1.15,2017-05-27 07:00:00,
2017-05-27 03:10:00,59.6,56.4,29.81,NW,311,0.0,0.0,89,0.00,,,0.00,Wunderground v.1.15,2017-05-27 07:10:00,
2017-05-27 03:20:00,59.8,56.6,29.81,NW,311,0.0,0.0,89,0.00,,,0.00,Wunderground v.1.15,2017-05-27 07:20:00,
2017-05-27 03:30:00,60.1,56.8,29.81,NW,311,1.0,4.0,89,0.00,,,0.00,Wunderground v.1.15,2017-05-27 07:30:00,
2017-05-27 03:40:00,60.0,56.7,29.80,NW,311,0.0,0.0,89,0.00,,,0.00,Wunderground v.1.15,2017-05-27 07:40:00,
2017-05-27 03:50:00,59.8,56.6,29.80,NW,311,1.0,1.0,89,0.00,,,0.00,Wunderground v.1.15,2017-05-27 07:50:00,
2017-05-27 04:00:00,59.5,56.6,29.79,NW,311,0.0,0.0,90,0.00,,,0.00,Wunderground v.1.15,2017-05-27 08:00:00,
2017-05-27 04:10:00,59.0,56.1,29.79,NW,311,1.0,1.0,90,0.00,,,0.00,Wunderground v.1.15,2017-05-27 08:10:00,
2017-05-27 04:20:00,58.7,56.1,29.79,NW,311,0.0,0.0,91,0.00,,,0.00,Wunderground v.1.15,2017-05-27 08:20:00,
2017-05-27 04:30:00,58.5,56.2,29.79,NW,311,0.0,0.0,92,0.00,,,0.00,Wunderground v.1.15,2017-05-27 08:30:00,
2017-05-27 04:40:00,58.3,56.0,29.79,NW,311,0.0,0.0,92,0.00,,,0.00,Wunderground v.1.15,2017-05-27 08:40:00,
2017-05-27 04:50:00,58.2,55.9,29.79,NW,311,0.0,0.0,92,0.00,,,0.00,Wunderground v.1.15,2017-05-27 08:50:00,
2017-05-27 05:00:00,58.1,56.1,29.79,NW,311,0.0,0.0,93,0.00,,,0.00,Wunderground v.1.15,2017-05-27 09:00:00,
2017-05-27 05:10:00,58.2,56.2,29.79,NW,311,0.0,0.0,93,0.00,,,0.00,Wunderground v.1.15,2017-05-27 09:10:00,
2017-05-27 05:20:00,58.3,56.0,29.79,NW,311,0.0,0.0,92,0.00,,,0.00,Wunderground v.1.15,2017-05-27 09:20:00,
2017-05-27 05:30:00,58.2,56.2,29.79,NW,311,0.0,0.0,93,0.00,,,0.00,Wunderground v.1.15,2017-05-27 09:30:00,
2017-05-27 05:40:00,58.2,56.2,29.79,NW,311,0.0,0.0,93,0.00,,,0.00,Wunderground v.1.15,2017-05-27 09:40:00,
2017-05-27 05:50:00,58.3,56.3,29.79,NW,311,0.0,0.0,93,0.00,,,0.00,Wunderground v.1.15,2017-05-27 09:50:00,
2017-05-27 06:00:00,58.4,56.4,29.79,NW,311,0.0,0.0,93,0.00,,,0.00,Wunderground v.1.15,2017-05-27 10:00:00,
2017-05-27 06:20:00,58.4,56.4,29.79,NW,311,0.0,0.0,93,0.00,,,0.00,Wunderground v.1.15,2017-05-27 10:20:00,
2017-05-27 06:30:00,58.4,56.4,29.78,NW,311,0.0,0.0,93,0.00,,,0.00,Wunderground v.1.15,2017-05-27 10:30:00,
2017-05-27 06:40:00,58.7,56.7,29.79,NW,311,0.0,0.0,93,0.00,,,0.00,Wunderground v.1.15,2017-05-27 10:40:00,
2017-05-27 06:50:00,58.6,56.6,29.79,NW,311,0.0,0.0,93,0.00,,,0.00,Wunderground v.1.15,2017-05-27 10:50:00,
2017-05-27 07:00:00,58.3,56.3,29.79,NW,311,0.0,0.0,93,0.00,,,0.00,Wunderground v.1.15,2017-05-27 11:00:00,
2017-05-27 07:10:00,58.1,56.1,29.79,NW,311,0.0,0.0,93,0.00,,,0.00,Wunderground v.1.15,2017-05-27 11:10:00,
2017-05-27 07:20:00,57.7,55.7,29.79,NW,311,0.0,0.0,93,0.00,,,0.00,Wunderground v.1.15,2017-05-27 11:20:00,
2017-05-27 07:40:00,57.7,56.3,29.80,NW,311,0.0,0.0,95,0.00,,,0.00,Wunderground v.1.15,2017-05-27 11:40:00,
2017-05-27 07:50:00,58.9,57.5,29.80,NW,311,0.0,0.0,95,0.00,,,0.00,Wunderground v.1.15,2017-05-27 11:50:00,
2017-05-27 08:00:00,59.7,57.4,29.79,NW,311,0.0,0.0,92,0.00,,,0.00,Wunderground v.1.15,2017-05-27 12:00:00,
2017-05-27 08:10:00,59.9,57.3,29.80,NW,311,0.0,0.0,91,0.00,,,0.00,Wunderground v.1.15,2017-05-27 12:10:00,
2017-05-27 08:20:00,59.9,57.9,29.80,NW,311,0.0,0.0,93,0.00,,,0.00,Wunderground v.1.15,2017-05-27 12:20:00,
2017-05-27 08:30:00,61.0,58.7,29.80,NW,311,0.0,0.0,92,0.00,,,0.00,Wunderground v.1.15,2017-05-27 12:30:00,
2017-05-27 08:40:00,62.4,59.4,29.81,NW,311,0.0,0.0,90,0.00,,,0.00,Wunderground v.1.15,2017-05-27 12:40:00,
2017-05-27 08:50:00,63.6,60.0,29.81,NW,311,0.0,0.0,88,0.00,,,0.00,Wunderground v.1.15,2017-05-27 12:50:00,
2017-05-27 09:00:00,64.3,60.3,29.81,NW,311,0.0,0.0,87,0.00,,,0.00,Wunderground v.1.15,2017-05-27 13:00:00,
2017-05-27 09:10:00,65.3,61.3,29.82,NW,311,0.0,0.0,87,0.00,,,0.00,Wunderground v.1.15,2017-05-27 13:10:00,
2017-05-27 09:20:00,66.3,62.3,29.82,NW,311,0.0,0.0,87,0.00,,,0.00,Wunderground v.1.15,2017-05-27 13:20:00,
2017-05-27 09:30:00,67.1,62.4,29.82,NW,311,0.0,0.0,85,0.00,,,0.00,Wunderground v.1.15,2017-05-27 13:30:00,
2017-05-27 09:40:00,67.5,62.5,29.82,NW,311,0.0,0.0,84,0.00,,,0.00,Wunderground v.1.15,2017-05-27 13:40:00,
2017-05-27 09:50:00,68.8,63.8,29.82,NW,311,0.0,0.0,84,0.00,,,0.00,Wunderground v.1.15,2017-05-27 13:50:00,
2017-05-27 10:00:00,70.6,63.4,29.83,NW,311,0.0,0.0,78,0.00,,,0.00,Wunderground v.1.15,2017-05-27 14:00:00,
2017-05-27 10:10:00,71.1,63.9,29.82,NW,311,0.0,0.0,78,0.00,,,0.00,Wunderground v.1.15,2017-05-27 14:10:00,
2017-05-27 10:20:00,71.9,64.3,29.82,NW,311,2.0,2.0,77,0.00,,,0.00,Wunderground v.1.15,2017-05-27 14:20:00,
2017-05-27 10:30:00,71.7,64.1,29.82,NW,311,0.0,0.0,77,0.00,,,0.00,Wunderground v.1.15,2017-05-27 14:30:00,
2017-05-27 10:40:00,72.6,64.2,29.82,NW,315,1.0,1.0,75,0.00,,,0.00,Wunderground v.1.15,2017-05-27 14:40:00,
2017-05-27 10:50:00,72.7,64.3,29.82,WNW,297,1.0,1.0,75,0.00,,,0.00,Wunderground v.1.15,2017-05-27 14:50:00,
2017-05-27 11:00:00,72.1,64.1,29.82,WSW,250,1.0,1.0,76,0.00,,,0.00,Wunderground v.1.15,2017-05-27 15:00:00,
2017-05-27 11:10:00,72.4,64.4,29.81,SSW,194,1.0,1.0,76,0.00,,,0.00,Wunderground v.1.15,2017-05-27 15:10:00,
2017-05-27 11:20:00,72.7,63.9,29.81,SSW,192,1.0,1.0,74,0.00,,,0.00,Wunderground v.1.15,2017-05-27 15:20:00,
2017-05-27 11:30:00,73.8,65.4,29.81,SSW,196,0.0,0.0,75,0.00,,,0.00,Wunderground v.1.15,2017-05-27 15:30:00,
2017-05-27 11:40:00,75.0,65.8,29.81,SSW,196,0.0,0.0,73,0.00,,,0.00,Wunderground v.1.15,2017-05-27 15:40:00,
2017-05-27 11:50:00,75.1,63.8,29.81,South,190,0.0,0.0,68,0.00,,,0.00,Wunderground v.1.15,2017-05-27 15:50:00,
2017-05-27 12:00:00,76.1,64.3,29.81,WSW,253,0.0,0.0,67,0.00,,,0.00,Wunderground v.1.15,2017-05-27 16:00:00,
2017-05-27 12:10:00,76.8,65.4,29.82,WSW,253,0.0,0.0,68,0.00,,,0.00,Wunderground v.1.15,2017-05-27 16:10:00,
2017-05-27 12:20:00,77.0,64.8,29.82,WSW,253,0.0,0.0,66,0.00,,,0.00,Wunderground v.1.15,2017-05-27 16:20:00,
2017-05-27 12:30:00,76.2,64.9,29.82,WSW,253,0.0,0.0,68,0.00,,,0.00,Wunderground v.1.15,2017-05-27 16:30:00,
2017-05-27 12:40:00,76.3,65.8,29.83,WSW,253,0.0,0.0,70,0.00,,,0.00,Wunderground v.1.15,2017-05-27 16:40:00,
2017-05-27 12:50:00,74.8,64.8,29.83,NNW,336,1.0,1.0,71,0.00,,,0.00,Wunderground v.1.15,2017-05-27 16:50:00,
2017-05-27 13:00:00,74.9,64.5,29.84,SSW,206,1.0,1.0,70,0.00,,,0.00,Wunderground v.1.15,2017-05-27 17:00:00,
2017-05-27 13:10:00,75.9,64.6,29.81,NE,54,1.0,6.0,68,0.00,,,0.00,Wunderground v.1.15,2017-05-27 17:10:00,
2017-05-27 13:20:00,76.6,64.8,29.81,SW,217,2.0,2.0,67,0.00,,,0.00,Wunderground v.1.15,2017-05-27 17:20:00,
2017-05-27 13:30:00,77.2,64.1,29.79,SW,217,0.0,0.0,64,0.00,,,0.00,Wunderground v.1.15,2017-05-27 17:30:00,
2017-05-27 13:40:00,77.7,65.4,29.79,SW,217,0.0,0.0,66,0.00,,,0.00,Wunderground v.1.15,2017-05-27 17:40:00,
2017-05-27 13:50:00,78.2,65.0,29.79,SW,217,0.0,0.0,64,0.00,,,0.00,Wunderground v.1.15,2017-05-27 17:50:00,
2017-05-27 14:00:00,77.9,64.7,29.80,SW,217,0.0,0.0,64,0.00,,,0.00,Wunderground v.1.15,2017-05-27 18:00:00,
2017-05-27 14:10:00,77.5,65.7,29.78,SW,217,0.0,0.0,67,0.00,,,0.00,Wunderground v.1.15,2017-05-27 18:10:00,
2017-05-27 14:20:00,76.4,65.1,29.78,South,186,3.0,3.0,68,0.00,,,0.00,Wunderground v.1.15,2017-05-27 18:20:00,
2017-05-27 14:30:00,75.9,66.6,29.78,South,175,4.0,4.0,73,0.00,,,0.00,Wunderground v.1.15,2017-05-27 18:30:00,
2017-05-27 14:40:00,75.6,65.5,29.76,South,181,4.0,6.0,71,0.00,,,0.00,Wunderground v.1.15,2017-05-27 18:40:00,
2017-05-27 14:50:00,75.8,66.5,29.76,South,178,3.0,3.0,73,0.00,,,0.00,Wunderground v.1.15,2017-05-27 18:50:00,
2017-05-27 15:00:00,75.5,64.6,29.76,South,172,9.0,19.0,69,0.00,,,0.00,Wunderground v.1.15,2017-05-27 19:00:00,
2017-05-27 15:10:00,74.9,64.9,29.76,South,173,10.0,10.0,71,0.00,,,0.00,Wunderground v.1.15,2017-05-27 19:10:00,
2017-05-27 15:20:00,75.2,65.1,29.76,South,182,11.0,11.0,71,0.00,,,0.00,Wunderground v.1.15,2017-05-27 19:20:00,
2017-05-27 15:30:00,75.4,64.5,29.75,South,178,11.0,11.0,69,0.00,,,0.00,Wunderground v.1.15,2017-05-27 19:30:00,
2017-05-27 15:40:00,76.1,64.3,29.75,South,177,12.0,12.0,67,0.00,,,0.00,Wunderground v.1.15,2017-05-27 19:40:00,
2017-05-27 15:50:00,75.6,65.5,29.75,South,171,9.0,10.0,71,0.00,,,0.00,Wunderground v.1.15,2017-05-27 19:50:00,
2017-05-27 16:00:00,75.2,64.3,29.74,South,179,10.0,10.0,69,0.00,,,0.00,Wunderground v.1.15,2017-05-27 20:00:00,
2017-05-27 16:10:00,76.0,65.1,29.74,South,179,8.0,8.0,69,0.00,,,0.00,Wunderground v.1.15,2017-05-27 20:10:00,
2017-05-27 16:20:00,76.8,65.9,29.74,South,181,3.0,3.0,69,0.00,,,0.00,Wunderground v.1.15,2017-05-27 20:20:00,
2017-05-27 16:30:00,77.6,65.3,29.75,NE,34,0.0,8.0,66,0.00,,,0.00,Wunderground v.1.15,2017-05-27 20:30:00,
2017-05-27 16:40:00,77.8,64.6,29.75,North,349,4.0,5.0,64,0.00,,,0.00,Wunderground v.1.15,2017-05-27 20:40:00,
2017-05-27 16:50:00,78.0,65.3,29.75,North,360,1.0,1.0,65,0.00,,,0.00,Wunderground v.1.15,2017-05-27 20:50:00,
2017-05-27 17:00:00,78.6,64.0,29.74,North,360,0.0,0.0,61,0.00,,,0.00,Wunderground v.1.15,2017-05-27 21:00:00,
2017-05-27 17:10:00,78.7,65.5,29.74,SSW,209,2.0,2.0,64,0.00,,,0.00,Wunderground v.1.15,2017-05-27 21:10:00,
2017-05-27 17:20:00,78.7,65.9,29.74,SSW,209,0.0,0.0,65,0.00,,,0.00,Wunderground v.1.15,2017-05-27 21:20:00,
2017-05-27 17:30:00,78.9,65.2,29.74,SSW,205,0.0,1.0,63,0.00,,,0.00,Wunderground v.1.15,2017-05-27 21:30:00,
2017-05-27 17:40:00,79.1,63.5,29.75,SW,232,1.0,1.0,59,0.00,,,0.00,Wunderground v.1.15,2017-05-27 21:40:00,
2017-05-27 17:50:00,79.0,64.9,29.75,SW,236,0.0,0.0,62,0.00,,,0.00,Wunderground v.1.15,2017-05-27 21:50:00,
2017-05-27 18:00:00,79.0,64.4,29.74,WSW,242,1.0,1.0,61,0.00,,,0.00,Wunderground v.1.15,2017-05-27 22:00:00,
2017-05-27 18:10:00,78.4,63.8,29.73,South,189,2.0,2.0,61,0.00,,,0.00,Wunderground v.1.15,2017-05-27 22:10:00,
2017-05-27 18:20:00,78.3,63.3,29.73,SSW,197,1.0,1.0,60,0.00,,,0.00,Wunderground v.1.15,2017-05-27 22:20:00,
2017-05-27 18:30:00,78.4,63.8,29.74,WSW,249,0.0,0.0,61,0.00,,,0.00,Wunderground v.1.15,2017-05-27 22:30:00,
2017-05-27 18:40:00,78.2,63.2,29.74,SSW,193,1.0,1.0,60,0.00,,,0.00,Wunderground v.1.15,2017-05-27 22:40:00,
2017-05-27 18:50:00,77.7,63.2,29.74,SSW,207,1.0,4.0,61,0.00,,,0.00,Wunderground v.1.15,2017-05-27 22:50:00,
2017-05-27 19:00:00,77.1,62.6,29.74,West,259,2.0,2.0,61,0.00,,,0.00,Wunderground v.1.15,2017-05-27 23:00:00,
2017-05-27 19:10:00,76.7,62.7,29.74,South,186,1.0,1.0,62,0.00,,,0.00,Wunderground v.1.15,2017-05-27 23:10:00,
2017-05-27 19:20:00,76.2,62.7,29.74,SSW,200,0.0,0.0,63,0.00,,,0.00,Wunderground v.1.15,2017-05-27 23:20:00,
2017-05-27 19:30:00,75.7,62.7,29.73,SSW,192,2.0,7.0,64,0.00,,,0.00,Wunderground v.1.15,2017-05-27 23:30:00,
2017-05-27 19:40:00,75.2,62.6,29.73,SSW,197,1.0,1.0,65,0.00,,,0.00,Wunderground v.1.15,2017-05-27 23:40:00,
2017-05-27 19:50:00,74.8,62.2,29.73,SSW,197,0.0,0.0,65,0.00,,,0.00,Wunderground v.1.15,2017-05-27 23:50:00,
2017-05-27 20:00:00,74.7,62.1,29.72,SSW,194,0.0,0.0,65,0.00,,,0.00,Wunderground v.1.15,2017-05-28 00:00:00,
2017-05-27 20:10:00,74.3,62.2,29.73,SSW,193,3.0,5.0,66,0.00,,,0.00,Wunderground v.1.15,2017-05-28 00:10:00,
2017-05-27 20:20:00,74.0,61.9,29.73,South,182,3.0,3.0,66,0.00,,,0.00,Wunderground v.1.15,2017-05-28 00:20:00,
2017-05-27 20:30:00,73.9,61.8,29.73,SSW,192,0.0,0.0,66,0.00,,,0.00,Wunderground v.1.15,2017-05-28 00:30:00,
2017-05-27 20:40:00,73.9,61.8,29.72,South,186,0.0,0.0,66,0.00,,,0.00,Wunderground v.1.15,2017-05-28 00:40:00,
2017-05-27 20:50:00,73.4,61.8,29.72,South,186,2.0,2.0,67,0.00,,,0.00,Wunderground v.1.15,2017-05-28 00:50:00,
2017-05-27 21:00:00,72.8,61.6,29.71,SSW,202,2.0,13.0,68,0.00,,,0.00,Wunderground v.1.15,2017-05-28 01:00:00,
2017-05-27 21:10:00,72.4,62.1,29.71,South,180,2.0,2.0,70,0.00,,,0.00,Wunderground v.1.15,2017-05-28 01:10:00,
2017-05-27 21:20:00,72.7,61.9,29.71,South,188,2.0,2.0,69,0.00,,,0.00,Wunderground v.1.15,2017-05-28 01:20:00,